Flag for U.S.A. Weather past 2 weeks in Metlakatla, Alaska, U.S.A.

Now
61 °F

Overcast.


Feels Like: 61 °F
Forecast: 55 / 62 °F
Wind: 7 mph from South

Location: Metlakatla - Metlakatla Seaplane Base

Current Time: Jul 31, 2015 at 4:09:58 PM

Latest Report: Jul 31, 2015 at 3:36 PM


Visibility: 10 mi

Pressure: 30.13 "Hg

Humidity: 94%

Dew point: 59 °F

Location of MetlakatlaLocation

Historic Weather in Metlakatla — Graph

°F

Metlakatla temperature yesterday

Maximum temperature yesterday: 59 °F (at 11:36 PM)
Minimum temperature yesterday: 57 °F (at 5:36 PM)
Average temperature yesterday: 57 °F

Past Weeks' High & Low Weather Summary

 TemperatureHumidityPressure
High72 °F (Jul 21, 4:36 PM)100% (Jul 30, 5:36 PM)30.20 "Hg (Jul 30, 5:36 PM)
Low54 °F (Jul 24, 1:36 AM)52% (Jul 22, 5:16 PM)29.77 "Hg (Jul 24, 4:16 PM)
Average60 °F81%29.92 "Hg
* Reported Jul 19 12:36 AM — Jul 31 2:56 PM, Metlakatla, Weather by CustomWeather, © 2015

Note: Actual official high and low records may vary slightly from our data, if they occured in-between our weather recording intervals... More about our weather records

Advertising

Metlakatla weather history for previous 24 hours

 ConditionsComfort  
Time TempWeatherWind HumidityBarometerVisibility
2:56 PM
Fri, Jul 31
63 °FLow clouds.8 mph88%30.12 "Hg10 mi
2:36 PM63 °FLow clouds.8 mph94%30.12 "Hg10 mi
1:56 PM63 °FMostly cloudy.7 mph94%30.11 "Hg10 mi
1:36 PM63 °FMostly cloudy.8 mph94%30.10 "Hg10 mi
1:16 PM63 °FMostly cloudy.7 mph100%30.10 "Hg10 mi
12:56 PM63 °FMore clouds than sun.6 mph94%30.10 "Hg10 mi
12:36 PM63 °FMostly cloudy.5 mph94%30.10 "Hg5 mi
12:16 PM61 °FMostly cloudy.7 mph94%30.09 "Hg4 mi
11:56 AM61 °FCloudy.3 mph100%30.09 "Hg9 mi
11:36 AM61 °FCloudy.10 mph94%30.08 "Hg10 mi
11:16 AM61 °FLow clouds.7 mph94%30.08 "Hg5 mi
9:56 AM61 °FCloudy.6 mph88%30.08 "Hg10 mi
9:36 AM61 °FCloudy.8 mph94%30.07 "Hg6 mi
9:16 AM61 °FMostly cloudy.8 mph100%30.07 "Hg2 mi
8:56 AM61 °FLow clouds.8 mph100%30.07 "Hg2 mi
8:36 AM59 °FLow clouds.9 mph94%30.07 "Hg3 mi
8:16 AM59 °FLow clouds.9 mph94%30.06 "Hg3 mi
7:56 AM59 °FMostly cloudy.7 mph94%30.06 "Hg3 mi
7:36 AM59 °FMostly cloudy.12 mph94%30.06 "Hg6 mi
7:16 AM59 °FMostly cloudy.6 mph94%30.06 "Hg3 mi
6:56 AM57 °FLow clouds.6 mph94%30.05 "Hg7 mi
5:16 AM57 °FMostly cloudy.13 mph100%30.05 "Hg5 mi
4:36 AM57 °FMostly cloudy.7 mph100%30.06 "Hg8 mi
4:16 AM57 °FMostly cloudy.9 mph100%30.06 "Hg10 mi
3:56 AM57 °FOvercast.8 mph100%30.06 "Hg5 mi
3:36 AM57 °FPartly cloudy.10 mph94%30.06 "Hg10 mi
3:16 AM57 °FMostly cloudy.12 mph100%30.07 "Hg10 mi
2:56 AM57 °FMostly cloudy.10 mph94%30.07 "Hg7 mi
2:36 AM57 °FPartly cloudy.9 mph100%30.07 "Hg5 mi
2:16 AM57 °FOvercast.13 mph94%30.07 "Hg5 mi
1:56 AM57 °FPartly cloudy.12 mph100%30.08 "Hg4 mi
1:36 AM57 °FPartly cloudy.7 mph100%30.08 "Hg6 mi
1:16 AM57 °FMostly cloudy.9 mph100%30.08 "Hg3 mi
12:56 AM59 °FMostly cloudy.9 mph94%30.08 "Hg5 mi
12:36 AM59 °FMostly cloudy.8 mph100%30.08 "Hg3 mi
12:16 AM59 °FMostly cloudy.7 mph100%30.08 "Hg4 mi
11:36 PM
Thu, Jul 30
59 °FOvercast.9 mph100%30.09 "Hg6 mi
11:16 PM57 °FMostly cloudy.10 mph100%30.09 "Hg7 mi
10:56 PM57 °FOvercast.10 mph100%30.09 "Hg8 mi
10:36 PM57 °FOvercast.9 mph100%30.09 "Hg9 mi
10:16 PM57 °FMostly cloudy.10 mph100%30.09 "Hg10 mi
9:56 PM57 °FMostly cloudy.12 mph100%30.10 "Hg9 mi
9:36 PM57 °FMostly cloudy.9 mph100%30.10 "Hg6 mi
9:16 PM57 °FMostly cloudy.12 mph100%30.10 "Hg3 mi
8:56 PM57 °FMostly cloudy.9 mph100%30.09 "Hg5 mi
8:36 PM57 °FMostly cloudy.9 mph100%30.09 "Hg7 mi
7:56 PM57 °FMore clouds than sun.10 mph100%30.09 "Hg9 mi
7:16 PM57 °FMostly cloudy.12 mph100%30.10 "Hg8 mi
6:56 PM57 °FMore clouds than sun.12 mph100%30.10 "Hg7 mi
6:36 PM57 °FMostly cloudy.9 mph100%30.10 "Hg8 mi
5:56 PM57 °FMostly cloudy.12 mph100%30.11 "Hg10 mi
5:36 PM57 °FMostly cloudy.12 mph100%30.12 "Hg10 mi
Weather by CustomWeather, © 2015

See weather overviewHow to use our weather pages